Overview Statistics Trail Chart Weather Telemetry Raw packets
 

This is the latest recevied weather packets stored in our database for station/object DG6YGE-6. If no packets are shown the sender has not sent any weather packets the latest 10 day(s).

<< 46 47 48 49 50 51 52 >>
Time Temp. Humidity Pressure Rain* Wind** Luminosity Snow
1787948349 16.11° C 85% 1009 hPa 0 mm - 0 W/m² -
1787947749 16.11° C 85% 1008.9 hPa 0 mm - 0 W/m² -
1787947150 16.11° C 85% 1008.6 hPa 0 mm - 0 W/m² -
1787946550 18.89° C 79% 1008.4 hPa 0 mm - 0 W/m² -
1787945950 18.89° C 79% 1008.3 hPa 0 mm - 0 W/m² -
1787945349 18.89° C 79% 1007.9 hPa 0 mm - 0 W/m² -
1787944750 18.89° C 79% 1007.8 hPa 2.54 mm - 0 W/m² -
1787944149 18.89° C 79% 1007.6 hPa 2.54 mm - 0 W/m² -
1787943550 18.89° C 79% 1007.6 hPa 2.54 mm - 0 W/m² -
1787942952 18.89° C 79% 1007.5 hPa 2.54 mm - 0 W/m² -
1787942350 18.89° C 79% 1007.4 hPa 2.54 mm - 0 W/m² -
1787941750 18.89° C 79% 1007.3 hPa 2.54 mm - 0 W/m² -
1787941150 20° C 73% 1007.2 hPa 0 mm - 0 W/m² -
1787940550 20° C 72% 1006.9 hPa 0 mm - 4 W/m² -
1787939950 20° C 71% 1006.8 hPa 0 mm - 8 W/m² -
1787939350 20.56° C 71% 1006.7 hPa 0 mm - 10 W/m² -
1787938750 20.56° C 70% 1006.7 hPa 0 mm - 20 W/m² -
1787938149 21.11° C 70% 1006.7 hPa 0 mm - 34 W/m² -
1787937550 21.67° C 66% 1006.3 hPa 0 mm - 29 W/m² -
1787936949 22.22° C 65% 1006.4 hPa 0 mm - 30 W/m² -
1787936350 22.22° C 64% 1006.3 hPa 0 mm - 28 W/m² -
1787935750 22.22° C 63% 1006.3 hPa 0 mm - 125 W/m² -
1787935150 22.78° C 62% 1006.3 hPa 0 mm - 183 W/m² -
1787934550 22.78° C 62% 1006.2 hPa 0 mm - 290 W/m² -
1787933949 22.78° C 61% 1006.4 hPa 0 mm - 286 W/m² -

* Rain latest hour (hover to see other rain measurements)
** Current wind speed in m/s (hover to see current wind gust speed)